DW3267 Weather Reports


time (UTC)temp
C
wind
direction
speed
KPH
gust
KPH
rain 1hr
cm
rain 24hr
cm
rain mn
cm
humidity
%
barometer
mb
20260502162057 17 143 8.0 9.7 0.00 0.00 0.00 25 1018.2
20260502161957 17 155 8.0 9.7 0.00 0.00 0.00 23 1018.1
20260502161856 17 167 3.2 9.7 0.00 0.00 0.00 24 1018.1
20260502161757 17 136 6.4 9.7 0.00 0.00 0.00 23 1018.1
20260502161657 17 187 4.8 9.7 0.00 0.00 0.00 22 1018.1
20260502161556 17 142 1.6 9.7 0.00 0.00 0.00 24 1018.1
20260502161456 17 138 4.8 9.7 0.00 0.00 0.00 23 1018.1
20260502161356 17 103 6.4 9.7 0.00 0.00 0.00 24 1018.1
20260502161256 16 175 1.6 6.4 0.00 0.00 0.00 25 1018.1
20260502161157 16 82 0.0 6.4 0.00 0.00 0.00 31 1018.1
20260502161056 16 127 4.8 8.0 0.00 0.00 0.00 31 1018.1
20260502160957 16 246 1.6 12.9 0.00 0.00 0.00 27 1018.1
20260502160857 16 188 1.6 12.9 0.00 0.00 0.00 26 1018.1
20260502160656 16 153 1.6 12.9 0.00 0.00 0.00 23 1018.1
20260502160556 16 180 3.2 12.9 0.00 0.00 0.00 26 1018.1
20260502160457 16 153 3.2 12.9 0.00 0.00 0.00 26 1018.1
20260502160357 16 147 3.2 12.9 0.00 0.00 0.00 26 1018.1
20260502160257 16 50 1.6 12.9 0.00 0.00 0.00 27 1018.1
20260502160157 16 85 1.6 12.9 0.00 0.00 0.00 25 1018.1
20260502152256 12 143 3.2 16.1 0.00 0.00 0.00 28 1018.1
20260502152056 12 119 3.2 16.1 0.00 0.00 0.00 27 1018.2
20260502151957 12 158 4.8 16.1 0.00 0.00 0.00 29 1018.2
20260502151856 12 140 12.9 12.9 0.00 0.00 0.00 28 1018.2
20260502151756 12 107 1.6 14.5 0.00 0.00 0.00 30 1018.2
20260502151556 12 61 6.4 14.5 0.00 0.00 0.00 29 1018.2
20260502151457 12 131 6.4 14.5 0.00 0.00 0.00 29 1018.2
20260502151356 12 87 1.6 14.5 0.00 0.00 0.00 27 1018.2
20260502151256 12 140 1.6 14.5 0.00 0.00 0.00 28 1018.2
20260502151157 12 76 3.2 14.5 0.00 0.00 0.00 27 1018.2
20260502151057 12 105 6.4 14.5 0.00 0.00 0.00 28 1018.2
20260502150957 12 153 6.4 14.5 0.00 0.00 0.00 30 1018.2
20260502150856 12 162 0.0 6.4 0.00 0.00 0.00 31 1018.2
20260502150756 12 201 1.6 6.4 0.00 0.00 0.00 30 1018.2
20260502150556 12 216 1.6 4.8 0.00 0.00 0.00 34 1018.2
20260502150357 12 271 1.6 3.2 0.00 0.00 0.00 35 1018.1
20260502150257 12 271 1.6 3.2 0.00 0.00 0.00 36 1018.1
20260502150156 12 290 1.6 3.2 0.00 0.00 0.00 37 1018.1
20260502130658 8 165 0.0 4.8 0.00 0.00 0.00 32 1017.8
20260502130556 8 165 0.0 4.8 0.00 0.00 0.00 32 1017.8
20260502130457 8 165 0.0 4.8 0.00 0.00 0.00 32 1017.7
20260502130356 8 165 0.0 6.4 0.00 0.00 0.00 33 1017.8
20260502130256 8 165 1.6 6.4 0.00 0.00 0.00 34 1017.8
20260502130157 8 177 1.6 6.4 0.00 0.00 0.00 32 1017.7
20260502123757 7 152 1.6 8.0 0.00 0.00 0.00 35 1017.4
20260502123656 7 152 0.0 8.0 0.00 0.00 0.00 35 1017.4
20260502123457 7 152 1.6 8.0 0.00 0.00 0.00 37 1017.4
20260502123258 7 185 1.6 8.0 0.00 0.00 0.00 36 1017.4
20260502123056 7 182 0.0 8.0 0.00 0.00 0.00 37 1017.4
20260502122957 7 209 6.4 8.0 0.00 0.00 0.00 35 1017.4
20260502122856 7 223 3.2 6.4 0.00 0.00 0.00 37 1017.4
20260502122756 7 225 3.2 6.4 0.00 0.00 0.00 37 1017.4
20260502122656 7 178 3.2 6.4 0.00 0.00 0.00 35 1017.4
20260502122556 7 319 1.6 4.8 0.00 0.00 0.00 36 1017.4
20260502122457 7 319 1.6 4.8 0.00 0.00 0.00 36 1017.4
20260502122356 7 319 1.6 4.8 0.00 0.00 0.00 35 1017.4
20260502122257 7 15 3.2 8.0 0.00 0.00 0.00 35 1017.4
20260502122155 7 17 1.6 8.0 0.00 0.00 0.00 36 1017.4
20260502122057 7 234 3.2 8.0 0.00 0.00 0.00 38 1017.3
20260502121957 7 238 3.2 8.0 0.00 0.00 0.00 36 1017.4
20260502121856 7 231 0.0 8.0 0.00 0.00 0.00 36 1017.4
20260502121757 7 243 4.8 8.0 0.00 0.00 0.00 38 1017.4
20260502121656 7 174 0.0 8.0 0.00 0.00 0.00 38 1017.4
20260502121557 7 173 1.6 8.0 0.00 0.00 0.00 37 1017.4
20260502121457 7 85 4.8 8.0 0.00 0.00 0.00 39 1017.4
20260502121256 7 42 1.6 4.8 0.00 0.00 0.00 34 1017.4
20260502121155 7 42 0.0 4.8 0.00 0.00 0.00 36 1017.4
20260502121058 7 37 1.6 4.8 0.00 0.00 0.00 37 1017.4
20260502120957 7 133 1.6 4.8 0.00 0.00 0.00 36 1017.4
20260502120756 7 132 0.0 4.8 0.00 0.00 0.00 36 1017.3
20260502120557 7 297 1.6 4.8 0.00 0.00 0.00 35 1017.4
20260502120457 7 345 3.2 4.8 0.00 0.00 0.00 36 1017.4
20260502120357 7 344 1.6 4.8 0.00 0.00 0.00 35 1017.4
20260502120257 7 244 0.0 4.8 0.00 0.00 0.00 37 1017.4
20260502120156 7 228 4.8 4.8 0.00 0.00 0.00 37 1017.4
20260502115757 7 97 0.0 3.2 0.00 0.00 0.00 35 1017.4
20260502115656 7 97 0.0 3.2 0.00 0.00 0.00 35 1017.4
20260502115457 7 97 1.6 3.2 0.00 0.00 0.00 36 1017.4
20260502115357 7 97 0.0 3.2 0.00 0.00 0.00 37 1017.4
20260502115256 7 97 0.0 3.2 0.00 0.00 0.00 37 1017.4
20260502115056 7 96 0.0 3.2 0.00 0.00 0.00 35 1017.4
20260502114956 7 96 1.6 3.2 0.00 0.00 0.00 36 1017.4
20260502114857 7 107 1.6 3.2 0.00 0.00 0.00 37 1017.4
20260502114657 7 107 1.6 3.2 0.00 0.00 0.00 36 1017.4
20260502114456 7 107 0.0 3.2 0.00 0.00 0.00 37 1017.4
20260502114356 7 107 0.0 3.2 0.00 0.00 0.00 37 1017.4
20260502113957 7 108 3.2 3.2 0.00 0.00 0.00 37 1017.4
20260502113857 7 109 1.6 3.2 0.00 0.00 0.00 38 1017.4
20260502113757 7 161 1.6 3.2 0.00 0.00 0.00 38 1017.4
20260502113655 7 161 0.0 3.2 0.00 0.00 0.00 40 1017.4
20260502113556 7 161 1.6 3.2 0.00 0.00 0.00 39 1017.4
20260502113458 7 74 1.6 3.2 0.00 0.00 0.00 35 1017.4
20260502113357 7 42 1.6 3.2 0.00 0.00 0.00 37 1017.4
20260502113256 7 56 3.2 3.2 0.00 0.00 0.00 37 1017.4
20260502113157 7 57 1.6 3.2 0.00 0.00 0.00 39 1017.5
20260502113056 7 57 1.6 4.8 0.00 0.00 0.00 37 1017.4
20260502112958 7 59 1.6 8.0 0.00 0.00 0.00 38 1017.5
20260502112856 7 59 0.0 8.0 0.00 0.00 0.00 38 1017.5
20260502112758 7 59 3.2 8.0 0.00 0.00 0.00 37 1017.5
20260502112457 7 37 0.0 8.0 0.00 0.00 0.00 37 1017.5
20260502112357 7 60 3.2 8.0 0.00 0.00 0.00 36 1017.5
20260502112257 7 142 3.2 8.0 0.00 0.00 0.00 37 1017.5
20260502112156 7 169 3.2 8.0 0.00 0.00 0.00 38 1017.5
20260502112056 7 178 4.8 8.0 0.00 0.00 0.00 38 1017.6
20260502111956 7 155 6.4 6.4 0.00 0.00 0.00 38 1017.5
20260502111857 7 158 1.6 4.8 0.00 0.00 0.00 38 1017.5
20260502111756 7 161 1.6 4.8 0.00 0.00 0.00 38 1017.6
20260502111656 7 140 3.2 4.8 0.00 0.00 0.00 37 1017.5
20260502111557 7 130 0.0 4.8 0.00 0.00 0.00 36 1017.5
20260502111457 7 130 0.0 4.8 0.00 0.00 0.00 37 1017.6
20260502111356 7 130 1.6 4.8 0.00 0.00 0.00 37 1017.6
20260502111256 7 132 1.6 4.8 0.00 0.00 0.00 37 1017.5
20260502111156 7 135 0.0 4.8 0.00 0.00 0.00 37 1017.6
20260502111056 7 128 0.0 4.8 0.00 0.00 0.00 36 1017.6
20260502110956 7 111 1.6 4.8 0.00 0.00 0.00 36 1017.5
20260502110857 7 89 1.6 4.8 0.00 0.00 0.00 36 1017.6
20260502110757 7 89 4.8 4.8 0.00 0.00 0.00 36 1017.6
20260502110656 7 111 1.6 3.2 0.00 0.00 0.00 36 1017.6
20260502110557 7 165 0.0 3.2 0.00 0.00 0.00 36 1017.6
20260502110457 7 165 1.6 3.2 0.00 0.00 0.00 37 1017.6
20260502110356 7 165 1.6 3.2 0.00 0.00 0.00 37 1017.6
20260502110257 7 186 1.6 3.2 0.00 0.00 0.00 37 1017.6
20260502110057 7 280 0.0 3.2 0.00 0.00 0.00 37 1017.6
20260502105856 7 242 1.6 3.2 0.00 0.00 0.00 38 1017.6
20260502105756 7 242 1.6 3.2 0.00 0.00 0.00 39 1017.6
20260502105656 7 248 3.2 3.2 0.00 0.00 0.00 36 1017.6
20260502105556 7 248 0.0 1.6 0.00 0.00 0.00 36 1017.6
20260502105356 7 248 1.6 1.6 0.00 0.00 0.00 37 1017.6
20260502105257 7 248 0.0 1.6 0.00 0.00 0.00 35 1017.5
20260502105156 7 248 0.0 1.6 0.00 0.00 0.00 35 1017.5
20260502104656 7 248 1.6 1.6 0.00 0.00 0.00 36 1017.5
20260502104556 7 248 0.0 3.2 0.00 0.00 0.00 37 1017.5
20260502104458 7 250 0.0 4.8 0.00 0.00 0.00 36 1017.5
20260502104158 7 250 1.6 4.8 0.00 0.00 0.00 36 1017.5
20260502104056 7 250 0.0 4.8 0.00 0.00 0.00 36 1017.5
20260502103957 7 250 1.6 4.8 0.00 0.00 0.00 37 1017.5
20260502103757 7 248 1.6 4.8 0.00 0.00 0.00 38 1017.5
20260502103657 7 248 1.6 4.8 0.00 0.00 0.00 39 1017.4
20260502103556 7 247 3.2 4.8 0.00 0.00 0.00 38 1017.4
20260502103456 7 257 1.6 4.8 0.00 0.00 0.00 38 1017.4
20260502103356 7 276 3.2 4.8 0.00 0.00 0.00 37 1017.4
20260502103256 7 252 3.2 4.8 0.00 0.00 0.00 39 1017.4
20260502103156 7 252 3.2 4.8 0.00 0.00 0.00 39 1017.4
20260502103057 7 226 1.6 3.2 0.00 0.00 0.00 38 1017.4
20260502102957 7 236 1.6 3.2 0.00 0.00 0.00 39 1017.4
20260502102857 7 247 0.0 3.2 0.00 0.00 0.00 37 1017.4
20260502102758 7 238 1.6 3.2 0.00 0.00 0.00 38 1017.4
20260502102657 7 237 1.6 3.2 0.00 0.00 0.00 37 1017.4
20260502102556 7 236 1.6 3.2 0.00 0.00 0.00 38 1017.4
20260502102456 7 214 3.2 3.2 0.00 0.00 0.00 38 1017.5
20260502102355 7 158 0.0 3.2 0.00 0.00 0.00 37 1017.5
20260502102256 7 123 1.6 3.2 0.00 0.00 0.00 37 1017.5
20260502102056 7 92 1.6 3.2 0.00 0.00 0.00 37 1017.5
20260502101957 7 92 1.6 3.2 0.00 0.00 0.00 37 1017.5
20260502101857 7 89 0.0 3.2 0.00 0.00 0.00 37 1017.5
20260502101756 7 89 1.6 3.2 0.00 0.00 0.00 37 1017.6
20260502101557 7 89 0.0 1.6 0.00 0.00 0.00 38 1017.6
20260502101457 7 89 0.0 0.0 0.00 0.00 0.00 37 1017.6
20260502101356 7 89 0.0 0.0 0.00 0.00 0.00 37 1017.6
20260502101155 7 89 0.0 3.2 0.00 0.00 0.00 37 1017.6
20260502101056 7 89 0.0 3.2 0.00 0.00 0.00 37 1017.6
20260502100958 7 89 0.0 3.2 0.00 0.00 0.00 37 1017.6
20260502100856 8 89 0.0 3.2 0.00 0.00 0.00 37 1017.6
20260502100756 8 89 0.0 3.2 0.00 0.00 0.00 37 1017.6
20260502100656 8 89 0.0 3.2 0.00 0.00 0.00 38 1017.6
20260502100457 8 89 0.0 3.2 0.00 0.00 0.00 38 1017.6
20260502100356 8 89 0.0 3.2 0.00 0.00 0.00 37 1017.6
20260502100255 8 89 1.6 3.2 0.00 0.00 0.00 37 1017.6
20260502100157 8 89 0.0 4.8 0.00 0.00 0.00 36 1017.6
20260502091356 10 98 0.0 1.6 0.00 0.00 0.00 30 1017.4
20260502091256 10 98 0.0 1.6 0.00 0.00 0.00 29 1017.4
20260502091155 10 98 0.0 1.6 0.00 0.00 0.00 29 1017.4
20260502090957 10 142 0.0 0.0 0.00 0.00 0.00 29 1017.4
20260502090857 11 177 0.0 0.0 0.00 0.00 0.00 30 1017.3
20260502090757 11 177 0.0 0.0 0.00 0.00 0.00 28 1017.4
20260502090656 11 182 0.0 3.2 0.00 0.00 0.00 27 1017.3
20260502090557 11 242 0.0 4.8 0.00 0.00 0.00 28 1017.3
20260502090457 11 242 0.0 4.8 0.00 0.00 0.00 27 1017.3
20260502090356 11 243 0.0 4.8 0.00 0.00 0.00 28 1017.3
20260502090256 11 243 0.0 4.8 0.00 0.00 0.00 28 1017.3
20260502071356 12 17 0.0 3.2 0.00 0.00 0.00 28 1017.3
20260502071156 12 20 0.0 8.0 0.00 0.00 0.00 28 1017.3
20260502070956 12 292 1.6 8.0 0.00 0.00 0.00 27 1017.3
20260502070856 12 292 1.6 8.0 0.00 0.00 0.00 27 1017.3
20260502070757 13 290 1.6 12.9 0.00 0.00 0.00 26 1017.3
20260502070656 13 264 3.2 12.9 0.00 0.00 0.00 26 1017.3
20260502070555 13 111 1.6 12.9 0.00 0.00 0.00 25 1017.4
20260502070456 13 71 0.0 12.9 0.00 0.00 0.00 25 1017.4
20260502070155 13 146 3.2 12.9 0.00 0.00 0.00 24 1017.4
20260502070056 13 131 3.2 12.9 0.00 0.00 0.00 24 1017.4
20260502065856 13 101 1.6 11.3 0.00 0.00 0.00 24 1017.3
20260502065756 13 5 1.6 12.9 0.00 0.00 0.00 24 1017.4
20260502065556 13 5 3.2 17.7 0.00 0.00 0.00 22 1017.3
20260502065456 13 355 3.2 17.7 0.00 0.00 0.00 23 1017.4
20260502065356 13 355 6.4 17.7 0.00 0.00 0.00 22 1017.4
20260502065157 14 15 3.2 17.7 0.00 0.00 0.00 21 1017.4
20260502065056 14 49 1.6 17.7 0.00 0.00 0.00 22 1017.4
20260502064957 14 59 11.3 17.7 0.00 0.00 0.00 22 1017.3
20260502064756 13 47 6.4 17.7 0.00 0.00 0.00 22 1017.3
20260502064556 13 61 11.3 16.1 0.00 0.00 0.00 22 1017.3
20260502064457 13 360 4.8 14.5 0.00 0.00 0.00 22 1017.2
20260502064356 13 38 4.8 16.1 0.00 0.00 0.00 22 1017.2
20260502064256 13 36 3.2 16.1 0.00 0.00 0.00 22 1017.3
20260502064057 13 5 8.0 19.3 0.00 0.00 0.00 22 1017.2
20260502063856 13 78 3.2 19.3 0.00 0.00 0.00 22 1017.1
20260502063756 13 63 4.8 19.3 0.00 0.00 0.00 22 1017.1
20260502063656 13 85 9.7 19.3 0.00 0.00 0.00 21 1017.2
20260502063556 13 61 3.2 19.3 0.00 0.00 0.00 22 1017.1
20260502063458 13 90 4.8 19.3 0.00 0.00 0.00 22 1017.1
20260502063357 13 22 4.8 19.3 0.00 0.00 0.00 22 1017.1
20260502063256 13 33 4.8 14.5 0.00 0.00 0.00 22 1017.2
20260502063057 13 87 9.7 14.5 0.00 0.00 0.00 22 1017.1
20260502062956 13 76 14.5 14.5 0.00 0.00 0.00 22 1017.1
20260502062856 13 57 11.3 12.9 0.00 0.00 0.00 22 1017.1
20260502062756 13 74 3.2 12.9 0.00 0.00 0.00 22 1017.1
20260502062655 14 65 8.0 12.9 0.00 0.00 0.00 22 1017.1
20260502062556 14 63 4.8 12.9 0.00 0.00 0.00 22 1017.1
20260502062457 14 51 8.0 12.9 0.00 0.00 0.00 22 1017.1
20260502062356 14 57 3.2 12.9 0.00 0.00 0.00 22 1017.1
20260502062257 14 31 8.0 12.9 0.00 0.00 0.00 21 1017.1
20260502062157 14 45 8.0 12.9 0.00 0.00 0.00 22 1017.2
20260502061856 13 13 8.0 14.5 0.00 0.00 0.00 21 1017.1
20260502061655 13 34 4.8 14.5 0.00 0.00 0.00 21 1017.1
20260502061457 13 70 4.8 14.5 0.00 0.00 0.00 21 1017.1
20260502061355 13 38 4.8 14.5 0.00 0.00 0.00 22 1017.1
20260502061256 13 42 9.7 14.5 0.00 0.00 0.00 22 1017.1
20260502061155 13 62 4.8 14.5 0.00 0.00 0.00 22 1017.1
20260502061056 13 58 3.2 16.1 0.00 0.00 0.00 22 1017.1
20260502060855 13 73 6.4 20.9 0.00 0.00 0.00 22 1017.0
20260502060756 13 90 11.3 20.9 0.00 0.00 0.00 22 1017.0
20260502060656 13 71 8.0 20.9 0.00 0.00 0.00 22 1017.0
20260502060556 13 85 4.8 20.9 0.00 0.00 0.00 22 1017.1
20260502060357 14 78 11.3 20.9 0.00 0.00 0.00 22 1017.1
20260502060255 14 42 6.4 20.9 0.00 0.00 0.00 22 1017.1
20260502060158 14 39 8.0 20.9 0.00 0.00 0.00 22 1017.1
20260502060058 14 65 17.7 17.7 0.00 0.00 0.00 22 1017.1
20260502060002 14 30 6.4 17.7 0.00 0.00 0.00 21 1017.1
20260502055858 14 71 8.0 17.7 0.00 0.00 0.00 22 1017.0
20260502055758 14 71 4.8 17.7 0.00 0.00 0.00 22 1017.1
20260502055658 14 56 12.9 17.7 0.00 0.00 0.00 22 1017.0
20260502055558 14 53 11.3 17.7 0.00 0.00 0.00 22 1017.1
20260502055458 14 77 6.4 17.7 0.00 0.00 0.00 22 1017.1
20260502055357 14 65 11.3 17.7 0.00 0.00 0.00 22 1017.0
20260502055259 13 84 4.8 17.7 0.00 0.00 0.00 22 1017.1
20260502055057 13 63 6.4 16.1 0.00 0.00 0.00 22 1017.1
20260502054958 13 19 3.2 16.1 0.00 0.00 0.00 22 1017.1
20260502054858 13 81 9.7 16.1 0.00 0.00 0.00 22 1017.1
20260502054758 13 63 3.2 16.1 0.00 0.00 0.00 23 1017.1
20260502054657 13 38 3.2 16.1 0.00 0.00 0.00 23 1017.1
20260502054358 13 92 4.8 16.1 0.00 0.00 0.00 23 1017.1
20260502054258 13 44 11.3 16.1 0.00 0.00 0.00 23 1017.0
20260502054157 13 82 11.3 16.1 0.00 0.00 0.00 23 1017.0
20260502054058 13 90 4.8 16.1 0.00 0.00 0.00 23 1017.0
20260502053958 13 69 11.3 16.1 0.00 0.00 0.00 23 1017.1
20260502053858 13 90 4.8 16.1 0.00 0.00 0.00 23 1017.0
20260502053757 13 67 4.8 16.1 0.00 0.00 0.00 23 1017.0
20260502053657 13 88 8.0 16.1 0.00 0.00 0.00 24 1017.0
20260502053558 13 86 4.8 16.1 0.00 0.00 0.00 23 1017.0
20260502053458 13 93 9.7 16.1 0.00 0.00 0.00 24 1017.0
20260502053358 13 108 4.8 16.1 0.00 0.00 0.00 23 1017.0
20260502053258 13 98 3.2 16.1 0.00 0.00 0.00 23 1017.0
20260502053059 13 76 6.4 14.5 0.00 0.00 0.00 23 1017.0
20260502052958 13 44 8.0 14.5 0.00 0.00 0.00 23 1017.0
20260502052800 13 130 8.0 14.5 0.00 0.00 0.00 24 1017.0
20260502052657 13 121 1.6 12.9 0.00 0.00 0.00 24 1017.0
20260502052557 13 45 6.4 12.9 0.00 0.00 0.00 24 1016.9
20260502052357 13 105 1.6 11.3 0.00 0.00 0.00 24 1017.0
20260502052258 13 57 4.8 11.3 0.00 0.00 0.00 24 1016.9
20260502052157 13 82 0.0 11.3 0.00 0.00 0.00 24 1017.0
20260502052057 13 110 1.6 11.3 0.00 0.00 0.00 24 1017.0
20260502051959 13 81 1.6 12.9 0.00 0.00 0.00 24 1016.9
20260502051758 13 99 3.2 12.9 0.00 0.00 0.00 24 1016.9
20260502051657 13 65 6.4 12.9 0.00 0.00 0.00 24 1017.0
20260502051557 13 88 1.6 12.9 0.00 0.00 0.00 24 1017.0
20260502051458 13 57 3.2 12.9 0.00 0.00 0.00 24 1017.0
20260502051257 13 66 11.3 12.9 0.00 0.00 0.00 25 1017.0
20260502051059 12 86 8.0 12.9 0.00 0.00 0.00 25 1017.0
20260502050958 12 67 6.4 12.9 0.00 0.00 0.00 25 1017.0
20260502050757 12 94 4.8 11.3 0.00 0.00 0.00 26 1016.9
20260502050658 12 59 4.8 8.0 0.00 0.00 0.00 26 1016.9
20260502050558 12 74 3.2 8.0 0.00 0.00 0.00 26 1016.9
20260502050458 12 55 1.6 8.0 0.00 0.00 0.00 27 1016.9
20260502050358 12 61 4.8 8.0 0.00 0.00 0.00 27 1017.0
20260502050257 12 66 1.6 8.0 0.00 0.00 0.00 27 1016.9
20260502050157 12 66 0.0 8.0 0.00 0.00 0.00 27 1016.9
20260502050058 12 67 4.8 8.0 0.00 0.00 0.00 28 1017.0
20260502045959 12 89 3.2 8.0 0.00 0.00 0.00 27 1017.0
20260502045858 12 74 0.0 4.8 0.00 0.00 0.00 28 1017.0
20260502045757 11 85 1.6 4.8 0.00 0.00 0.00 28 1016.9
20260502045657 11 85 0.0 4.8 0.00 0.00 0.00 28 1017.0
20260502045557 11 115 0.0 4.8 0.00 0.00 0.00 29 1017.0
20260502045458 11 115 0.0 4.8 0.00 0.00 0.00 29 1017.0
20260502045358 11 115 0.0 4.8 0.00 0.00 0.00 30 1017.0
20260502045257 11 115 0.0 6.4 0.00 0.00 0.00 27 1017.0
20260502045158 11 115 1.6 6.4 0.00 0.00 0.00 27 1017.0
20260502045058 11 80 1.6 6.4 0.00 0.00 0.00 28 1017.0
20260502044957 11 51 3.2 6.4 0.00 0.00 0.00 28 1017.0
20260502044857 11 73 1.6 6.4 0.00 0.00 0.00 27 1017.0
20260502044759 11 81 3.2 6.4 0.00 0.00 0.00 29 1017.0
20260502044657 11 93 0.0 6.4 0.00 0.00 0.00 28 1017.0
20260502044557 11 72 0.0 6.4 0.00 0.00 0.00 28 1017.0
20260502044504 11 72 0.0 6.4 0.00 0.00 0.00 27 1017.0
20260502044357 11 55 1.6 8.0 0.00 0.00 0.00 28 1017.0
20260502044257 11 115 0.0 3.2 0.00 0.00 0.00 29 1017.0
20260502044158 11 76 0.0 3.2 0.00 0.00 0.00 29 1017.0
20260502044057 11 76 0.0 3.2 0.00 0.00 0.00 30 1017.0
20260502043958 11 76 0.0 3.2 0.00 0.00 0.00 30 1017.0
20260502043857 11 76 0.0 3.2 0.00 0.00 0.00 29 1017.0
20260502043758 11 76 0.0 3.2 0.00 0.00 0.00 30 1017.0
20260502043658 11 76 0.0 3.2 0.00 0.00 0.00 31 1017.0
20260502043557 11 76 0.0 3.2 0.00 0.00 0.00 30 1017.0
20260502043457 11 76 0.0 3.2 0.00 0.00 0.00 31 1017.0
20260502043358 11 76 0.0 3.2 0.00 0.00 0.00 30 1017.0
20260502043257 11 76 3.2 3.2 0.00 0.00 0.00 30 1017.0
20260502043157 11 71 1.6 3.2 0.00 0.00 0.00 31 1017.0
20260502043058 11 71 1.6 3.2 0.00 0.00 0.00 31 1017.0
20260502042957 11 71 1.6 3.2 0.00 0.00 0.00 32 1017.0
20260502042857 11 71 1.6 3.2 0.00 0.00 0.00 35 1017.0
20260502042758 11 71 3.2 3.2 0.00 0.00 0.00 33 1017.0
20260502042658 11 71 3.2 3.2 0.00 0.00 0.00 34 1017.0
20260502042558 11 53 1.6 3.2 0.00 0.00 0.00 34 1017.0
20260502042457 11 53 1.6 3.2 0.00 0.00 0.00 35 1016.9
20260502042359 11 51 0.0 4.8 0.00 0.00 0.00 35 1016.9
20260502042257 11 51 1.6 4.8 0.00 0.00 0.00 36 1017.0
20260502042157 11 46 1.6 4.8 0.00 0.00 0.00 33 1016.9
20260502042057 11 46 0.0 4.8 0.00 0.00 0.00 33 1017.0
20260502041959 11 46 1.6 4.8 0.00 0.00 0.00 33 1016.9
20260502041858 11 46 0.0 4.8 0.00 0.00 0.00 34 1017.0
20260502041758 11 46 1.6 4.8 0.00 0.00 0.00 34 1016.9
20260502041657 11 46 1.6 4.8 0.00 0.00 0.00 37 1016.9
20260502041558 11 63 1.6 4.8 0.00 0.00 0.00 37 1016.9
20260502041459 12 65 3.2 4.8 0.00 0.00 0.00 37 1017.0
20260502041257 12 64 1.6 4.8 0.00 0.00 0.00 37 1016.9
20260502041058 12 65 3.2 4.8 0.00 0.00 0.00 33 1016.9
20260502040857 12 65 3.2 4.8 0.00 0.00 0.00 35 1016.9
20260502040657 12 65 3.2 4.8 0.00 0.00 0.00 32 1016.8
20260502040559 12 76 3.2 4.8 0.00 0.00 0.00 29 1016.8
20260502040358 12 82 1.6 1.6 0.00 0.00 0.00 31 1016.8
20260502040257 12 82 0.0 0.0 0.00 0.00 0.00 32 1016.8
20260502040157 12 82 0.0 0.0 0.00 0.00 0.00 32 1016.8
20260502040058 12 82 0.0 0.0 0.00 0.00 0.00 31 1016.8
20260502035959 12 82 0.0 1.6 0.00 0.00 0.00 30 1016.8
20260502035857 12 82 0.0 1.6 0.00 0.00 0.00 30 1016.8
20260502035556 12 82 0.0 3.2 0.00 0.00 0.00 30 1016.8
20260502035458 12 82 0.0 3.2 0.00 0.00 0.00 30 1016.8
20260502035356 12 82 0.0 3.2 0.00 0.00 0.00 31 1016.8
20260502035257 12 82 0.0 3.2 0.00 0.00 0.00 31 1016.8
20260502035159 12 82 0.0 3.2 0.00 0.00 0.00 30 1016.8
20260502035057 12 82 0.0 3.2 0.00 0.00 0.00 31 1016.8
20260502034957 12 82 0.0 3.2 0.00 0.00 0.00 30 1016.8
20260502034857 12 82 1.6 3.2 0.00 0.00 0.00 29 1016.7
20260502034759 12 82 1.6 3.2 0.00 0.00 0.00 30 1016.7
20260502034657 12 82 1.6 3.2 0.00 0.00 0.00 30 1016.7
20260502034557 12 82 1.6 3.2 0.00 0.00 0.00 31 1016.7
20260502034458 12 82 1.6 1.6 0.00 0.00 0.00 31 1016.7
20260502034357 12 82 0.0 1.6 0.00 0.00 0.00 32 1016.7
20260502034256 12 82 0.0 1.6 0.00 0.00 0.00 31 1016.7
20260502034157 12 82 0.0 1.6 0.00 0.00 0.00 31 1016.7
20260502034057 12 82 0.0 1.6 0.00 0.00 0.00 31 1016.7
20260502033958 12 82 1.6 1.6 0.00 0.00 0.00 31 1016.7
20260502033857 12 82 0.0 1.6 0.00 0.00 0.00 31 1016.6
20260502033757 12 82 0.0 1.6 0.00 0.00 0.00 30 1016.7
20260502033659 12 82 0.0 3.2 0.00 0.00 0.00 30 1016.6
20260502033458 12 82 0.0 3.2 0.00 0.00 0.00 30 1016.6
20260502033356 12 82 0.0 3.2 0.00 0.00 0.00 30 1016.6
20260502033256 12 82 0.0 3.2 0.00 0.00 0.00 30 1016.6
20260502033157 12 82 0.0 3.2 0.00 0.00 0.00 31 1016.6
20260502033057 12 82 0.0 3.2 0.00 0.00 0.00 30 1016.6
20260502032958 12 82 1.6 3.2 0.00 0.00 0.00 30 1016.6
20260502032857 12 82 0.0 3.2 0.00 0.00 0.00 30 1016.5
20260502032757 12 82 1.6 4.8 0.00 0.00 0.00 30 1016.6
20260502032657 12 86 0.0 4.8 0.00 0.00 0.00 29 1016.5
20260502032558 12 86 1.6 8.0 0.00 0.00 0.00 29 1016.5
20260502032457 12 96 1.6 8.0 0.00 0.00 0.00 29 1016.5
20260502032357 12 99 1.6 8.0 0.00 0.00 0.00 29 1016.5
20260502032259 13 113 1.6 8.0 0.00 0.00 0.00 29 1016.5
20260502032157 13 115 0.0 8.0 0.00 0.00 0.00 28 1016.5
20260502031959 13 119 1.6 9.7 0.00 0.00 0.00 29 1016.5
20260502031857 13 144 3.2 9.7 0.00 0.00 0.00 30 1016.5
20260502031558 13 114 0.0 9.7 0.00 0.00 0.00 30 1016.4
20260502031458 13 205 3.2 9.7 0.00 0.00 0.00 30 1016.4
20260502031357 13 212 3.2 9.7 0.00 0.00 0.00 29 1016.4
20260502031257 13 210 4.8 9.7 0.00 0.00 0.00 29 1016.4
20260502031157 13 200 4.8 4.8 0.00 0.00 0.00 28 1016.3
20260502031058 13 55 1.6 4.8 0.00 0.00 0.00 27 1016.3
20260502030958 13 55 0.0 4.8 0.00 0.00 0.00 28 1016.3
20260502030858 13 56 0.0 4.8 0.00 0.00 0.00 28 1016.3
20260502030757 13 49 3.2 6.4 0.00 0.00 0.00 28 1016.3
20260502030658 13 58 3.2 6.4 0.00 0.00 0.00 28 1016.3
20260502030557 13 77 3.2 6.4 0.00 0.00 0.00 28 1016.2
20260502030458 13 48 0.0 6.4 0.00 0.00 0.00 28 1016.2
20260502030357 13 51 3.2 6.4 0.00 0.00 0.00 27 1016.2
20260502030257 13 59 1.6 6.4 0.00 0.00 0.00 28 1016.2
20260502030156 13 60 3.2 6.4 0.00 0.00 0.00 28 1016.1
20260502030057 13 67 3.2 6.4 0.00 0.00 0.00 29 1016.2
20260502030000 13 69 4.8 6.4 0.00 0.00 0.00 28 1016.2
20260502025858 13 80 4.8 6.4 0.00 0.00 0.00 27 1016.2
20260502025757 13 69 1.6 6.4 0.00 0.00 0.00 27 1016.1
20260502025658 13 64 3.2 6.4 0.00 0.00 0.00 28 1016.1
20260502025557 13 67 4.8 6.4 0.00 0.00 0.00 28 1016.1
20260502025458 13 53 1.6 6.4 0.00 0.00 0.00 28 1016.1
20260502025357 13 61 3.2 6.4 0.00 0.00 0.00 29 1016.1
20260502025257 13 69 4.8 6.4 0.00 0.00 0.00 28 1016.1
20260502025157 13 68 3.2 4.8 0.00 0.00 0.00 28 1016.1
20260502024958 13 66 4.8 4.8 0.00 0.00 0.00 29 1016.1
20260502024857 14 71 4.8 4.8 0.00 0.00 0.00 29 1016.1
20260502024758 14 75 3.2 3.2 0.00 0.00 0.00 29 1016.0
20260502024657 14 75 3.2 3.2 0.00 0.00 0.00 28 1016.0
20260502024557 14 75 0.0 3.2 0.00 0.00 0.00 28 1016.0
20260502024457 14 75 1.6 3.2 0.00 0.00 0.00 27 1016.0
20260502024357 14 75 1.6 3.2 0.00 0.00 0.00 28 1016.0
20260502024257 14 75 1.6 4.8 0.00 0.00 0.00 28 1016.1
20260502024156 14 75 1.6 4.8 0.00 0.00 0.00 28 1016.0
20260502023958 14 75 0.0 4.8 0.00 0.00 0.00 27 1016.0
20260502023757 15 75 0.0 4.8 0.00 0.00 0.00 27 1016.0
20260502023657 15 77 1.6 4.8 0.00 0.00 0.00 27 1016.0
20260502023558 15 77 3.2 4.8 0.00 0.00 0.00 27 1016.0
20260502023357 15 90 1.6 4.8 0.00 0.00 0.00 26 1016.0
20260502023257 15 245 3.2 3.2 0.00 0.00 0.00 25 1016.0
20260502023156 15 245 1.6 1.6 0.00 0.00 0.00 25 1016.0
20260502023058 15 245 0.0 1.6 0.00 0.00 0.00 24 1016.0
20260502022958 15 244 0.0 1.6 0.00 0.00 0.00 25 1016.0
20260502022856 15 244 1.6 1.6 0.00 0.00 0.00 24 1016.0
20260502022658 15 245 0.0 0.0 0.00 0.00 0.00 23 1015.9
20260502022557 15 244 0.0 0.0 0.00 0.00 0.00 23 1015.9
20260502022500 15 244 0.0 0.0 0.00 0.00 0.00 22 1015.9
20260502022357 15 245 0.0 0.0 0.00 0.00 0.00 22 1015.9
20260502022257 15 245 0.0 0.0 0.00 0.00 0.00 22 1015.9
20260502022200 15 245 0.0 0.0 0.00 0.00 0.00 22 1015.9
20260502021957 15 245 0.0 0.0 0.00 0.00 0.00 22 1015.9
20260502021858 15 245 0.0 0.0 0.00 0.00 0.00 22 1015.9
20260502021758 15 244 0.0 0.0 0.00 0.00 0.00 21 1015.9
20260502021658 15 244 0.0 0.0 0.00 0.00 0.00 21 1015.9
20260502021557 16 244 0.0 1.6 0.00 0.00 0.00 21 1015.9
20260502021457 16 245 0.0 1.6 0.00 0.00 0.00 22 1015.9
20260502021357 16 244 0.0 3.2 0.00 0.00 0.00 22 1015.9
20260502021258 16 244 0.0 3.2 0.00 0.00 0.00 22 1015.9
20260502021157 16 244 0.0 3.2 0.00 0.00 0.00 21 1015.9
20260502021057 16 245 0.0 3.2 0.00 0.00 0.00 22 1015.9
20260502020958 16 245 0.0 3.2 0.00 0.00 0.00 22 1015.9
20260502020857 16 244 0.0 3.2 0.00 0.00 0.00 22 1015.9
20260502020758 16 245 0.0 4.8 0.00 0.00 0.00 22 1015.8
20260502020656 16 245 0.0 4.8 0.00 0.00 0.00 22 1015.8
20260502020558 16 245 1.6 4.8 0.00 0.00 0.00 21 1015.9
20260502020357 16 257 0.0 4.8 0.00 0.00 0.00 22 1015.9
20260502020257 16 257 0.0 4.8 0.00 0.00 0.00 22 1015.8
20260502020158 16 257 3.2 4.8 0.00 0.00 0.00 21 1015.9
20260502020057 16 249 1.6 6.4 0.00 0.00 0.00 21 1015.9
20260502020000 16 245 0.0 6.4 0.00 0.00 0.00 21 1015.9
20260502015858 16 244 4.8 6.4 0.00 0.00 0.00 21 1015.8
20260502015757 16 304 1.6 6.4 0.00 0.00 0.00 22 1015.8
20260502015657 16 305 1.6 6.4 0.00 0.00 0.00 21 1015.8
20260502015557 16 256 3.2 6.4 0.00 0.00 0.00 21 1015.8
20260502015457 16 254 1.6 6.4 0.00 0.00 0.00 20 1015.8
20260502015358 16 269 3.2 6.4 0.00 0.00 0.00 21 1015.8
20260502015257 16 339 1.6 6.4 0.00 0.00 0.00 21 1015.8
20260502015157 16 227 1.6 6.4 0.00 0.00 0.00 21 1015.8
20260502015057 16 249 1.6 6.4 0.00 0.00 0.00 21 1015.8
20260502014957 16 276 4.8 6.4 0.00 0.00 0.00 21 1015.8
20260502014857 16 244 1.6 4.8 0.00 0.00 0.00 21 1015.8
20260502014758 16 243 4.8 4.8 0.00 0.00 0.00 20 1015.8
20260502014657 16 266 0.0 4.8 0.00 0.00 0.00 20 1015.7
20260502014557 17 266 0.0 4.8 0.00 0.00 0.00 21 1015.8
20260502014458 17 263 0.0 4.8 0.00 0.00 0.00 20 1015.8
20260502014358 17 254 1.6 4.8 0.00 0.00 0.00 20 1015.7
20260502014257 17 156 0.0 4.8 0.00 0.00 0.00 20 1015.7
20260502014058 17 321 3.2 4.8 0.00 0.00 0.00 21 1015.7
20260502013857 17 292 3.2 4.8 0.00 0.00 0.00 21 1015.7
20260502013757 17 237 3.2 4.8 0.00 0.00 0.00 20 1015.7
20260502013657 17 250 1.6 6.4 0.00 0.00 0.00 20 1015.7
20260502013357 17 275 0.0 6.4 0.00 0.00 0.00 21 1015.7
20260502013258 17 268 1.6 6.4 0.00 0.00 0.00 19 1015.7
20260502013159 17 267 0.0 6.4 0.00 0.00 0.00 20 1015.7
20260502013106 17 260 0.0 8.0 0.00 0.00 0.00 20 1015.7
20260502012958 17 257 1.6 11.3 0.00 0.00 0.00 21 1015.7
20260502012858 17 252 4.8 11.3 0.00 0.00 0.00 20 1015.6
20260502012757 17 308 1.6 11.3 0.00 0.00 0.00 21 1015.6
20260502012657 17 194 4.8 11.3 0.00 0.00 0.00 19 1015.6
20260502012557 17 256 4.8 11.3 0.00 0.00 0.00 20 1015.7
20260502012458 17 261 1.6 11.3 0.00 0.00 0.00 20 1015.6
20260502012357 17 288 3.2 11.3 0.00 0.00 0.00 20 1015.6
20260502012257 17 250 1.6 11.3 0.00 0.00 0.00 21 1015.7
20260502012156 17 254 3.2 11.3 0.00 0.00 0.00 21 1015.6
20260502012059 17 240 3.2 6.4 0.00 0.00 0.00 19 1015.7
20260502011957 17 304 3.2 4.8 0.00 0.00 0.00 20 1015.7
20260502011858 17 281 1.6 4.8 0.00 0.00 0.00 19 1015.7
20260502011757 17 265 4.8 4.8 0.00 0.00 0.00 20 1015.6
20260502011558 17 269 0.0 6.4 0.00 0.00 0.00 19 1015.7
20260502011457 17 295 0.0 6.4 0.00 0.00 0.00 20 1015.7
20260502011357 17 286 0.0 6.4 0.00 0.00 0.00 20 1015.7
20260502011257 17 286 3.2 6.4 0.00 0.00 0.00 20 1015.7
20260502011157 17 301 1.6 11.3 0.00 0.00 0.00 21 1015.7
20260502011058 17 315 1.6 11.3 0.00 0.00 0.00 19 1015.7
20260502010957 17 316 1.6 11.3 0.00 0.00 0.00 20 1015.7
20260502010856 17 304 1.6 11.3 0.00 0.00 0.00 20 1015.7
20260502010757 17 257 3.2 11.3 0.00 0.00 0.00 19 1015.7
20260502010657 17 252 1.6 11.3 0.00 0.00 0.00 20 1015.7
20260502010558 17 281 1.6 11.3 0.00 0.00 0.00 19 1015.7
20260502010457 17 248 4.8 11.3 0.00 0.00 0.00 19 1015.7
20260502010357 17 319 1.6 11.3 0.00 0.00 0.00 19 1015.7
20260502010257 17 224 3.2 8.0 0.00 0.00 0.00 20 1015.7
20260502010157 17 236 1.6 8.0 0.00 0.00 0.00 19 1015.7
20260502010057 17 264 1.6 8.0 0.00 0.00 0.00 20 1015.7
20260502010000 17 295 6.4 8.0 0.00 0.00 0.00 20 1015.7
20260502005857 17 273 3.2 8.0 0.00 0.00 0.00 20 1015.7
20260502005757 17 303 1.6 8.0 0.00 0.00 0.00 19 1015.7
20260502005557 18 317 4.8 8.0 0.00 0.00 0.00 19 1015.7
20260502005458 18 309 0.0 4.8 0.00 0.00 0.00 18 1015.7
20260502005357 18 296 1.6 4.8 0.00 0.00 0.00 20 1015.7
20260502005258 18 314 1.6 6.4 0.00 0.00 0.00 20 1015.7
20260502005157 18 329 0.0 8.0 0.00 0.00 0.00 20 1015.7
20260502004957 18 318 1.6 8.0 0.00 0.00 0.00 20 1015.7
20260502004857 18 321 3.2 8.0 0.00 0.00 0.00 20 1015.7
20260502004757 18 330 1.6 8.0 0.00 0.00 0.00 20 1015.7
20260502004557 18 271 3.2 8.0 0.00 0.00 0.00 20 1015.7
20260502004458 18 280 1.6 8.0 0.00 0.00 0.00 20 1015.7
20260502004358 18 346 4.8 8.0 0.00 0.00 0.00 20 1015.7
20260502004258 18 326 4.8 8.0 0.00 0.00 0.00 20 1015.6
20260502004157 18 9 0.0 6.4 0.00 0.00 0.00 20 1015.7
20260502004057 18 344 1.6 6.4 0.00 0.00 0.00 20 1015.7
20260502003957 18 251 3.2 6.4 0.00 0.00 0.00 19 1015.7
20260502003857 18 322 3.2 6.4 0.00 0.00 0.00 19 1015.7
20260502003757 18 313 1.6 6.4 0.00 0.00 0.00 20 1015.7
20260502003657 18 302 4.8 6.4 0.00 0.00 0.00 19 1015.7
20260502003557 18 284 3.2 12.9 0.00 0.00 0.00 19 1015.7
20260502003458 18 267 3.2 12.9 0.00 0.00 0.00 20 1015.6
20260502003257 18 315 3.2 12.9 0.00 0.00 0.00 18 1015.7
20260502003158 18 321 1.6 12.9 0.00 0.00 0.00 18 1015.7
20260502003057 18 325 1.6 12.9 0.00 0.00 0.00 18 1015.7
20260502002857 18 250 3.2 12.9 0.00 0.00 0.00 20 1015.7
20260502002757 18 327 4.8 12.9 0.00 0.00 0.00 20 1015.7
20260502002657 18 225 3.2 12.9 0.00 0.00 0.00 20 1015.7
20260502002557 18 246 8.0 9.7 0.00 0.00 0.00 20 1015.7
20260502002457 18 298 3.2 11.3 0.00 0.00 0.00 19 1015.7
20260502002359 18 219 3.2 11.3 0.00 0.00 0.00 18 1015.7
20260502002257 18 319 3.2 11.3 0.00 0.00 0.00 19 1015.7
20260502002157 18 293 1.6 11.3 0.00 0.00 0.00 19 1015.7
20260502002057 18 284 8.0 11.3 0.00 0.00 0.00 20 1015.7
20260502001857 18 146 6.4 11.3 0.00 0.00 0.00 20 1015.7
20260502001758 18 207 3.2 11.3 0.00 0.00 0.00 19 1015.7
20260502001656 18 247 3.2 11.3 0.00 0.00 0.00 19 1015.7
20260502001558 18 246 3.2 6.4 0.00 0.00 0.00 20 1015.8
20260502001457 18 255 1.6 6.4 0.00 0.00 0.00 19 1015.8
20260502001357 18 314 1.6 6.4 0.00 0.00 0.00 18 1015.7
20260502001258 18 328 3.2 6.4 0.00 0.00 0.00 18 1015.7
20260502001157 18 320 3.2 9.7 0.00 0.00 0.00 19 1015.7
20260502001058 18 246 3.2 11.3 0.00 0.00 0.00 18 1015.7
20260502000957 18 360 1.6 11.3 0.00 0.00 0.00 19 1015.7
20260502000857 18 355 0.0 11.3 0.00 0.00 0.00 19 1015.8
20260502000758 18 350 3.2 11.3 0.00 0.00 0.00 20 1015.8
20260502000457 18 269 1.6 11.3 0.00 0.00 0.00 21 1015.7
20260502000257 18 301 9.7 11.3 0.00 0.00 0.00 19 1015.7
20260502000157 18 279 1.6 9.7 0.00 0.00 0.00 20 1015.7
20260502000001 18 320 0.0 9.7 0.00 0.00 0.00 20 1015.7
20260501235857 18 284 3.2 9.7 0.00 0.00 0.00 19 1015.7
20260501235757 18 313 0.0 9.7 0.00 0.00 0.00 19 1015.7
20260501235657 18 251 9.7 9.7 0.00 0.00 0.00 18 1015.7
20260501235557 18 280 1.6 9.7 0.00 0.00 0.00 20 1015.7
20260501235457 18 305 3.2 9.7 0.00 0.00 0.00 20 1015.7
20260501235357 18 322 9.7 9.7 0.00 0.00 0.00 20 1015.7
20260501235156 18 342 6.4 8.0 0.00 0.00 0.00 19 1015.7
20260501235058 18 320 3.2 8.0 0.00 0.00 0.00 20 1015.7
20260501234958 18 306 6.4 8.0 0.00 0.00 0.00 20 1015.8
20260501234856 18 269 3.2 8.0 0.00 0.00 0.00 18 1015.7
20260501234758 18 24 1.6 9.7 0.00 0.00 0.00 19 1015.7
20260501234557 18 317 4.8 11.3 0.00 0.00 0.00 19 1015.7
20260501234458 18 355 3.2 11.3 0.00 0.00 0.00 21 1015.7
20260501234357 18 315 3.2 11.3 0.00 0.00 0.00 20 1015.7
20260501234258 18 257 3.2 11.3 0.00 0.00 0.00 18 1015.7
20260501234157 18 313 3.2 11.3 0.00 0.00 0.00 19 1015.7
20260501234057 18 339 4.8 11.3 0.00 0.00 0.00 21 1015.7
20260501233857 18 191 4.8 11.3 0.00 0.00 0.00 21 1015.7
20260501233657 18 297 3.2 11.3 0.00 0.00 0.00 20 1015.7
20260501233558 18 322 1.6 11.3 0.00 0.00 0.00 18 1015.7
20260501233458 18 315 4.8 11.3 0.00 0.00 0.00 18 1015.7
20260501233358 18 239 4.8 11.3 0.00 0.00 0.00 20 1015.8
20260501233257 18 304 8.0 11.3 0.00 0.00 0.00 19 1015.8
20260501233158 18 321 3.2 11.3 0.00 0.00 0.00 18 1015.8
20260501233057 18 278 4.8 16.1 0.00 0.00 0.00 19 1015.7
20260501232957 18 283 1.6 16.1 0.00 0.00 0.00 18 1015.8
20260501232857 18 334 4.8 16.1 0.00 0.00 0.00 21 1015.8
20260501232757 18 245 3.2 16.1 0.00 0.00 0.00 18 1015.8
20260501232657 18 254 3.2 16.1 0.00 0.00 0.00 18 1015.8
20260501232558 18 355 4.8 16.1 0.00 0.00 0.00 19 1015.8
20260501232457 18 319 4.8 16.1 0.00 0.00 0.00 19 1015.8
20260501232358 18 278 3.2 16.1 0.00 0.00 0.00 19 1015.8
20260501232257 18 311 3.2 16.1 0.00 0.00 0.00 20 1015.8
20260501232157 18 323 1.6 9.7 0.00 0.00 0.00 20 1015.8
20260501231859 18 228 4.8 9.7 0.00 0.00 0.00 20 1015.9
20260501231756 18 250 3.2 6.4 0.00 0.00 0.00 19 1015.9
20260501231458 18 316 4.8 6.4 0.00 0.00 0.00 19 1015.9
20260501231356 18 321 3.2 6.4 0.00 0.00 0.00 19 1015.9
20260501231158 18 355 1.6 6.4 0.00 0.00 0.00 19 1015.9
20260501231057 18 342 3.2 6.4 0.00 0.00 0.00 20 1015.9
20260501230958 18 333 4.8 8.0 0.00 0.00 0.00 20 1015.9
20260501230857 18 151 3.2 9.7 0.00 0.00 0.00 20 1015.9
20260501230758 18 350 1.6 9.7 0.00 0.00 0.00 19 1015.9
20260501230656 18 318 0.0 9.7 0.00 0.00 0.00 19 1015.9
20260501230256 18 342 3.2 9.7 0.00 0.00 0.00 19 1015.9
20260501230157 18 333 1.6 9.7 0.00 0.00 0.00 20 1016.0
20260501230057 18 165 4.8 12.9 0.00 0.00 0.00 19 1016.0
20260501225959 18 265 6.4 12.9 0.00 0.00 0.00 20 1016.0
20260501225857 18 339 8.0 12.9 0.00 0.00 0.00 19 1016.0
20260501225758 18 298 3.2 12.9 0.00 0.00 0.00 20 1016.0
20260501225658 18 264 6.4 12.9 0.00 0.00 0.00 22 1016.0
20260501225556 18 319 3.2 12.9 0.00 0.00 0.00 19 1016.0
20260501225457 18 316 3.2 12.9 0.00 0.00 0.00 18 1016.0
20260501225357 18 309 1.6 12.9 0.00 0.00 0.00 18 1016.1
20260501225257 18 293 1.6 12.9 0.00 0.00 0.00 21 1016.0
20260501225157 18 192 8.0 12.9 0.00 0.00 0.00 21 1016.1
20260501225056 18 221 8.0 8.0 0.00 0.00 0.00 22 1016.1
20260501224957 18 219 6.4 9.7 0.00 0.00 0.00 18 1016.1
20260501224858 18 286 3.2 9.7 0.00 0.00 0.00 20 1016.0
20260501224756 18 342 3.2 11.3 0.00 0.00 0.00 22 1016.0
20260501224557 18 238 3.2 11.3 0.00 0.00 0.00 20 1016.1
20260501224458 18 301 1.6 11.3 0.00 0.00 0.00 19 1016.1
20260501224357 18 298 3.2 11.3 0.00 0.00 0.00 20 1016.1
20260501224257 18 346 3.2 11.3 0.00 0.00 0.00 20 1016.1
20260501224156 18 323 4.8 11.3 0.00 0.00 0.00 21 1016.1
20260501224057 18 285 6.4 11.3 0.00 0.00 0.00 21 1016.1
20260501223957 18 257 9.7 11.3 0.00 0.00 0.00 20 1016.1
20260501223857 18 311 8.0 8.0 0.00 0.00 0.00 20 1016.1
20260501223757 18 290 1.6 6.4 0.00 0.00 0.00 21 1016.1
20260501223657 18 297 3.2 6.4 0.00 0.00 0.00 20 1016.2
20260501223458 18 355 3.2 6.4 0.00 0.00 0.00 21 1016.2
20260501223357 18 263 3.2 8.0 0.00 0.00 0.00 23 1016.2
20260501223257 18 274 4.8 8.0 0.00 0.00 0.00 20 1016.2
20260501223158 18 317 4.8 8.0 0.00 0.00 0.00 21 1016.2
20260501223057 18 288 1.6 8.0 0.00 0.00 0.00 18 1016.2
20260501222957 18 347 1.6 8.0 0.00 0.00 0.00 20 1016.2
20260501222857 18 309 3.2 8.0 0.00 0.00 0.00 20 1016.2
20260501222457 18 298 4.8 8.0 0.00 0.00 0.00 20 1016.3
20260501222256 18 289 3.2 6.4 0.00 0.00 0.00 20 1016.3
20260501222157 18 321 4.8 8.0 0.00 0.00 0.00 20 1016.3
20260501222057 18 319 3.2 11.3 0.00 0.00 0.00 19 1016.3
20260501221857 18 5 0.0 11.3 0.00 0.00 0.00 20 1016.4
20260501221656 18 313 4.8 11.3 0.00 0.00 0.00 18 1016.4
20260501221557 18 334 3.2 11.3 0.00 0.00 0.00 19 1016.4
20260501221457 18 345 1.6 11.3 0.00 0.00 0.00 19 1016.4
20260501221357 18 310 1.6 11.3 0.00 0.00 0.00 20 1016.4
20260501221257 18 296 8.0 11.3 0.00 0.00 0.00 20 1016.5
20260501221157 18 294 6.4 8.0 0.00 0.00 0.00 20 1016.4
20260501221058 18 355 4.8 9.7 0.00 0.00 0.00 19 1016.4
20260501220957 18 188 1.6 9.7 0.00 0.00 0.00 20 1016.5
20260501220657 18 325 4.8 9.7 0.00 0.00 0.00 19 1016.5
20260501220557 18 340 3.2 9.7 0.00 0.00 0.00 20 1016.5
20260501220457 18 334 4.8 9.7 0.00 0.00 0.00 20 1016.5
20260501220256 18 317 6.4 9.7 0.00 0.00 0.00 19 1016.6
20260501220157 18 292 4.8 8.0 0.00 0.00 0.00 21 1016.5
20260501220057 18 290 1.6 9.7 0.00 0.00 0.00 18 1016.5
20260501215959 18 307 3.2 9.7 0.00 0.00 0.00 19 1016.6
20260501215857 18 76 3.2 9.7 0.00 0.00 0.00 19 1016.6
20260501215758 18 21 1.6 16.1 0.00 0.00 0.00 22 1016.6
20260501215657 18 319 4.8 16.1 0.00 0.00 0.00 21 1016.6
20260501215557 18 271 6.4 16.1 0.00 0.00 0.00 21 1016.6
20260501215457 18 280 4.8 16.1 0.00 0.00 0.00 20 1016.6
20260501215357 18 328 3.2 16.1 0.00 0.00 0.00 19 1016.6
20260501215257 18 221 1.6 16.1 0.00 0.00 0.00 20 1016.7
20260501215156 18 211 6.4 16.1 0.00 0.00 0.00 18 1016.7
20260501215056 18 311 4.8 16.1 0.00 0.00 0.00 18 1016.6
20260501214957 18 311 3.2 16.1 0.00 0.00 0.00 20 1016.7
20260501214756 18 344 4.8 14.5 0.00 0.00 0.00 20 1016.7
20260501214657 18 309 3.2 14.5 0.00 0.00 0.00 21 1016.6
20260501214556 18 296 4.8 14.5 0.00 0.00 0.00 19 1016.6
20260501214457 18 282 1.6 14.5 0.00 0.00 0.00 19 1016.7
20260501214356 18 261 14.5 14.5 0.00 0.00 0.00 20 1016.7
20260501214256 18 342 1.6 11.3 0.00 0.00 0.00 21 1016.7
20260501214157 18 336 1.6 11.3 0.00 0.00 0.00 20 1016.7
20260501213957 18 11 3.2 11.3 0.00 0.00 0.00 19 1016.7
20260501213858 18 13 3.2 11.3 0.00 0.00 0.00 20 1016.7
20260501213757 18 259 11.3 11.3 0.00 0.00 0.00 20 1016.8
20260501213657 18 317 1.6 11.3 0.00 0.00 0.00 20 1016.8
20260501213556 18 235 1.6 11.3 0.00 0.00 0.00 20 1016.8
20260501213357 18 284 9.7 11.3 0.00 0.00 0.00 19 1016.8
20260501213257 18 267 3.2 11.3 0.00 0.00 0.00 19 1016.8
20260501213158 18 257 6.4 11.3 0.00 0.00 0.00 20 1016.9
20260501213057 18 301 4.8 11.3 0.00 0.00 0.00 19 1016.8
20260501212958 18 290 1.6 11.3 0.00 0.00 0.00 18 1016.8
20260501212857 18 325 3.2 11.3 0.00 0.00 0.00 18 1016.8
20260501212657 18 340 6.4 9.7 0.00 0.00 0.00 19 1016.8
20260501212558 18 292 4.8 9.7 0.00 0.00 0.00 19 1016.8
20260501212458 18 355 3.2 11.3 0.00 0.00 0.00 19 1016.8
20260501212356 18 293 4.8 11.3 0.00 0.00 0.00 20 1016.8
20260501212157 18 331 0.0 11.3 0.00 0.00 0.00 20 1016.9
20260501212057 18 341 3.2 11.3 0.00 0.00 0.00 20 1016.9
20260501211959 18 273 4.8 11.3 0.00 0.00 0.00 24 1016.8
20260501211857 18 327 4.8 11.3 0.00 0.00 0.00 24 1016.9
20260501211757 17 334 4.8 11.3 0.00 0.00 0.00 20 1016.9
20260501211657 18 309 3.2 11.3 0.00 0.00 0.00 20 1016.9
20260501211557 18 271 3.2 9.7 0.00 0.00 0.00 18 1016.9
20260501211457 18 315 1.6 9.7 0.00 0.00 0.00 17 1016.9
20260501211357 18 300 3.2 9.7 0.00 0.00 0.00 17 1016.9
20260501211257 18 302 8.0 9.7 0.00 0.00 0.00 18 1016.9
20260501210856 18 338 3.2 9.7 0.00 0.00 0.00 18 1016.9
20260501210757 18 325 3.2 9.7 0.00 0.00 0.00 19 1016.9
20260501210457 18 331 3.2 9.7 0.00 0.00 0.00 19 1016.8
20260501210356 18 330 6.4 9.7 0.00 0.00 0.00 18 1016.9
20260501210257 18 314 4.8 9.7 0.00 0.00 0.00 17 1016.9
20260501210158 18 321 4.8 9.7 0.00 0.00 0.00 20 1016.9
20260501205856 18 321 4.8 9.7 0.00 0.00 0.00 18 1016.8
20260501205756 18 316 3.2 9.7 0.00 0.00 0.00 17 1016.9
20260501205557 18 252 3.2 9.7 0.00 0.00 0.00 18 1016.9
20260501205357 18 355 4.8 9.7 0.00 0.00 0.00 18 1016.9
20260501205157 18 313 4.8 9.7 0.00 0.00 0.00 17 1016.9
20260501205057 18 313 1.6 9.7 0.00 0.00 0.00 18 1016.9
20260501204957 18 306 4.8 9.7 0.00 0.00 0.00 18 1016.9
20260501204857 18 310 3.2 11.3 0.00 0.00 0.00 18 1016.9
20260501204757 18 312 9.7 11.3 0.00 0.00 0.00 18 1016.9
20260501204657 18 341 1.6 11.3 0.00 0.00 0.00 18 1016.9
20260501204556 18 251 3.2 11.3 0.00 0.00 0.00 17 1016.8
20260501204457 18 336 8.0 11.3 0.00 0.00 0.00 18 1016.9
20260501204356 18 319 4.8 11.3 0.00 0.00 0.00 18 1016.9
20260501204257 18 309 4.8 11.3 0.00 0.00 0.00 19 1016.8
20260501203957 18 248 6.4 11.3 0.00 0.00 0.00 19 1016.9
20260501203857 18 267 9.7 11.3 0.00 0.00 0.00 18 1016.9
20260501203757 18 271 3.2 11.3 0.00 0.00 0.00 18 1016.9
20260501203657 18 247 6.4 11.3 0.00 0.00 0.00 18 1016.9
20260501203557 18 273 3.2 11.3 0.00 0.00 0.00 17 1016.9
20260501203457 18 275 6.4 11.3 0.00 0.00 0.00 17 1016.9
20260501203357 18 252 11.3 11.3 0.00 0.00 0.00 16 1016.8
20260501203057 19 13 3.2 12.9 0.00 0.00 0.00 20 1016.8
20260501202957 19 350 1.6 12.9 0.00 0.00 0.00 16 1016.8
20260501202857 18 327 3.2 12.9 0.00 0.00 0.00 18 1016.8
20260501202758 19 323 4.8 12.9 0.00 0.00 0.00 18 1016.8
20260501202657 19 274 3.2 12.9 0.00 0.00 0.00 21 1016.9
20260501202556 19 330 1.6 12.9 0.00 0.00 0.00 17 1016.9
20260501202457 19 310 6.4 12.9 0.00 0.00 0.00 18 1016.9
20260501202356 19 302 4.8 12.9 0.00 0.00 0.00 18 1016.8
20260501202256 19 284 1.6 11.3 0.00 0.00 0.00 19 1016.9
20260501202057 19 344 4.8 12.9 0.00 0.00 0.00 18 1016.9
20260501201957 19 347 0.0 12.9 0.00 0.00 0.00 21 1016.9
20260501201756 19 336 1.6 14.5 0.00 0.00 0.00 19 1016.9
20260501201556 19 329 3.2 14.5 0.00 0.00 0.00 18 1016.8
20260501201457 19 314 3.2 14.5 0.00 0.00 0.00 18 1016.8
20260501201256 19 336 3.2 14.5 0.00 0.00 0.00 18 1016.8
20260501201157 19 5 1.6 14.5 0.00 0.00 0.00 20 1016.8
20260501201058 18 355 4.8 14.5 0.00 0.00 0.00 21 1016.8
20260501200958 18 323 6.4 14.5 0.00 0.00 0.00 20 1016.8
20260501200857 18 294 8.0 14.5 0.00 0.00 0.00 18 1016.8
20260501200757 18 338 0.0 11.3 0.00 0.00 0.00 18 1016.8
20260501200657 19 331 4.8 11.3 0.00 0.00 0.00 18 1016.9
20260501200457 19 316 3.2 11.3 0.00 0.00 0.00 17 1016.9
20260501200356 19 329 4.8 11.3 0.00 0.00 0.00 15 1016.9
20260501200257 19 337 3.2 11.3 0.00 0.00 0.00 18 1016.9
20260501200157 19 351 4.8 11.3 0.00 0.00 0.00 22 1016.9
20260501200058 19 342 6.4 11.3 0.00 0.00 0.00 22 1016.9
20260501200000 19 313 3.2 11.3 0.00 0.00 0.00 20 1016.9
20260501195857 19 270 8.0 9.7 0.00 0.00 0.00 19 1016.9
20260501195756 19 259 4.8 9.7 0.00 0.00 0.00 17 1016.9
20260501195657 19 340 1.6 9.7 0.00 0.00 0.00 16 1016.9
20260501195556 20 334 6.4 9.7 0.00 0.00 0.00 17 1016.9
20260501195458 20 308 8.0 9.7 0.00 0.00 0.00 16 1016.9
20260501195357 19 331 3.2 8.0 0.00 0.00 0.00 19 1016.8
20260501195256 19 24 3.2 8.0 0.00 0.00 0.00 16 1016.9
20260501195157 19 336 0.0 8.0 0.00 0.00 0.00 17 1016.9
20260501195056 19 324 1.6 8.0 0.00 0.00 0.00 17 1016.9
20260501194957 19 257 8.0 8.0 0.00 0.00 0.00 17 1016.9
20260501194856 19 51 1.6 6.4 0.00 0.00 0.00 15 1016.9
20260501194757 19 17 0.0 6.4 0.00 0.00 0.00 18 1016.9
20260501194711 18 24 1.6 6.4 0.00 0.00 0.00 17 1016.9
20260501194557 18 350 3.2 8.0 0.00 0.00 0.00 15 1016.9
20260501194356 18 195 1.6 16.1 0.00 0.00 0.00 17 1017.0
20260501194257 18 34 1.6 16.1 0.00 0.00 0.00 18 1017.0
20260501194156 18 17 4.8 16.1 0.00 0.00 0.00 20 1017.0
20260501194056 18 48 3.2 16.1 0.00 0.00 0.00 23 1017.0
20260501193958 18 13 1.6 16.1 0.00 0.00 0.00 20 1017.0
20260501193857 18 355 3.2 16.1 0.00 0.00 0.00 21 1017.1
20260501193756 18 360 3.2 17.7 0.00 0.00 0.00 17 1017.0
20260501193556 18 121 12.9 17.7 0.00 0.00 0.00 15 1017.0
20260501193457 18 22 3.2 17.7 0.00 0.00 0.00 17 1017.0
20260501193356 18 16 6.4 17.7 0.00 0.00 0.00 12 1017.0
20260501193257 18 161 3.2 17.7 0.00 0.00 0.00 12 1017.0
20260501193157 18 130 3.2 17.7 0.00 0.00 0.00 14 1017.0
20260501193057 18 228 4.8 17.7 0.00 0.00 0.00 12 1017.0
20260501192957 18 165 4.8 17.7 0.00 0.00 0.00 13 1017.2
20260501192856 18 85 1.6 12.9 0.00 0.00 0.00 15 1017.1
20260501192657 18 137 6.4 12.9 0.00 0.00 0.00 12 1017.1
20260501192356 18 350 1.6 12.9 0.00 0.00 0.00 13 1017.1
20260501192256 18 217 1.6 12.9 0.00 0.00 0.00 14 1017.1
20260501192157 18 61 0.0 12.9 0.00 0.00 0.00 13 1017.1
20260501192057 18 57 6.4 12.9 0.00 0.00 0.00 13 1017.3
20260501191957 18 102 4.8 12.9 0.00 0.00 0.00 14 1017.2
20260501191857 18 115 4.8 12.9 0.00 0.00 0.00 15 1017.2
20260501191758 18 311 3.2 12.9 0.00 0.00 0.00 13 1017.1
20260501191657 18 327 3.2 12.9 0.00 0.00 0.00 14 1017.2
20260501191556 18 355 3.2 12.9 0.00 0.00 0.00 12 1017.3
20260501191459 18 25 4.8 12.9 0.00 0.00 0.00 13 1017.4
20260501191357 18 103 3.2 12.9 0.00 0.00 0.00 15 1017.4
20260501191257 18 124 8.0 12.9 0.00 0.00 0.00 16 1017.4
20260501191157 18 144 11.3 12.9 0.00 0.00 0.00 12 1017.4
20260501191058 18 184 6.4 12.9 0.00 0.00 0.00 13 1017.3
20260501190857 18 217 4.8 12.9 0.00 0.00 0.00 12 1017.4
20260501190756 18 190 12.9 12.9 0.00 0.00 0.00 12 1017.4
20260501190657 18 253 8.0 12.9 0.00 0.00 0.00 11 1017.4
20260501190557 18 213 4.8 12.9 0.00 0.00 0.00 10 1017.4
20260501190356 18 355 8.0 19.3 0.00 0.00 0.00 17 1017.5
20260501190257 18 115 6.4 19.3 0.00 0.00 0.00 17 1017.4
20260501190157 18 127 1.6 19.3 0.00 0.00 0.00 15 1017.4
20260501190057 18 338 1.6 19.3 0.00 0.00 0.00 15 1017.4
20260501190001 18 325 1.6 19.3 0.00 0.00 0.00 17 1017.4
20260501185857 18 315 1.6 19.3 0.00 0.00 0.00 13 1017.4
20260501185656 18 163 1.6 19.3 0.00 0.00 0.00 15 1017.5
20260501185556 18 81 8.0 19.3 0.00 0.00 0.00 16 1017.5
20260501185457 18 85 14.5 14.5 0.00 0.00 0.00 14 1017.5
20260501185356 18 136 6.4 9.7 0.00 0.00 0.00 17 1017.5
20260501185256 18 161 1.6 9.7 0.00 0.00 0.00 14 1017.5
20260501185157 18 304 0.0 9.7 0.00 0.00 0.00 14 1017.4
20260501185057 18 310 1.6 9.7 0.00 0.00 0.00 15 1017.4
20260501184756 18 38 6.4 11.3 0.00 0.00 0.00 20 1017.6
20260501184657 18 43 3.2 6.4 0.00 0.00 0.00 20 1017.6
20260501184557 18 319 1.6 6.4 0.00 0.00 0.00 20 1017.6
20260501184457 18 319 1.6 6.4 0.00 0.00 0.00 17 1017.6
20260501184356 18 241 3.2 6.4 0.00 0.00 0.00 17 1017.6
20260501184257 18 329 0.0 16.1 0.00 0.00 0.00 13 1017.6
20260501184157 18 98 1.6 16.1 0.00 0.00 0.00 12 1017.6
20260501183858 18 350 4.8 16.1 0.00 0.00 0.00 14 1017.7
20260501183556 17 31 3.2 16.1 0.00 0.00 0.00 13 1017.8
20260501183356 17 24 6.4 16.1 0.00 0.00 0.00 16 1017.8
20260501183057 17 160 4.8 11.3 0.00 0.00 0.00 15 1017.7
20260501182856 17 163 1.6 11.3 0.00 0.00 0.00 15 1017.7
20260501182756 17 77 0.0 11.3 0.00 0.00 0.00 17 1017.8
20260501182657 17 60 12.9 12.9 0.00 0.00 0.00 13 1017.7
20260501182556 17 360 0.0 9.7 0.00 0.00 0.00 13 1017.8
20260501182357 17 22 4.8 8.0 0.00 0.00 0.00 13 1017.7
20260501182257 17 219 1.6 8.0 0.00 0.00 0.00 14 1017.8
20260501182158 17 5 0.0 6.4 0.00 0.00 0.00 17 1017.8
20260501182056 17 5 3.2 6.4 0.00 0.00 0.00 17 1017.8
20260501181857 17 34 1.6 6.4 0.00 0.00 0.00 16 1017.8
20260501181757 16 84 1.6 6.4 0.00 0.00 0.00 19 1017.9
20260501181657 16 96 3.2 8.0 0.00 0.00 0.00 17 1017.8
20260501181557 16 296 0.0 8.0 0.00 0.00 0.00 15 1017.9
20260501181458 16 236 3.2 8.0 0.00 0.00 0.00 22 1017.9
20260501181359 16 198 3.2 9.7 0.00 0.00 0.00 19 1017.8
20260501181256 16 246 0.0 9.7 0.00 0.00 0.00 19 1017.9
20260501181058 16 136 4.8 11.3 0.00 0.00 0.00 17 1017.9
20260501180957 16 253 4.8 11.3 0.00 0.00 0.00 18 1017.9
20260501180856 16 171 4.8 11.3 0.00 0.00 0.00 16 1017.8
20260501180658 16 107 0.0 11.3 0.00 0.00 0.00 16 1017.9
20260501180556 16 182 1.6 11.3 0.00 0.00 0.00 18 1017.9
20260501180457 16 193 9.7 11.3 0.00 0.00 0.00 16 1017.9
20260501180357 16 200 6.4 11.3 0.00 0.00 0.00 17 1017.9
20260501180257 16 203 3.2 9.7 0.00 0.00 0.00 16 1018.0
20260501180156 16 217 4.8 16.1 0.00 0.00 0.00 17 1018.0
20260501180056 16 147 3.2 20.9 0.00 0.00 0.00 17 1017.9
20260501180000 16 317 3.2 20.9 0.00 0.00 0.00 17 1017.9
20260501175856 16 258 4.8 20.9 0.00 0.00 0.00 15 1017.9
20260501175757 16 37 8.0 20.9 0.00 0.00 0.00 15 1018.0
20260501175556 16 148 4.8 20.9 0.00 0.00 0.00 17 1018.0
20260501175457 16 11 3.2 20.9 0.00 0.00 0.00 17 1018.0
20260501175357 16 172 1.6 22.5 0.00 0.00 0.00 15 1018.0
20260501175157 16 92 8.0 22.5 0.00 0.00 0.00 14 1018.1
20260501175057 16 138 1.6 22.5 0.00 0.00 0.00 20 1018.1
20260501174956 16 70 1.6 22.5 0.00 0.00 0.00 17 1018.0
20260501174857 16 24 1.6 22.5 0.00 0.00 0.00 17 1018.0
20260501174756 16 14 4.8 22.5 0.00 0.00 0.00 16 1018.1
20260501174657 16 39 9.7 22.5 0.00 0.00 0.00 17 1018.0
20260501174458 16 44 11.3 20.9 0.00 0.00 0.00 16 1018.1
20260501174356 16 84 11.3 20.9 0.00 0.00 0.00 15 1018.1
20260501174257 16 63 4.8 20.9 0.00 0.00 0.00 16 1018.1
20260501174158 16 60 14.5 20.9 0.00 0.00 0.00 15 1018.1
20260501174057 16 91 9.7 20.9 0.00 0.00 0.00 15 1018.1
20260501173957 16 49 1.6 20.9 0.00 0.00 0.00 17 1018.2
20260501173856 16 66 8.0 20.9 0.00 0.00 0.00 17 1018.2
20260501173757 16 93 8.0 20.9 0.00 0.00 0.00 16 1018.2
20260501173656 16 58 11.3 20.9 0.00 0.00 0.00 17 1018.1
20260501173457 16 74 17.7 20.9 0.00 0.00 0.00 16 1018.2
20260501173356 16 44 8.0 17.7 0.00 0.00 0.00 16 1018.1
20260501173257 16 97 9.7 17.7 0.00 0.00 0.00 15 1018.1
20260501173156 15 156 3.2 17.7 0.00 0.00 0.00 16 1018.1
20260501172957 15 69 6.4 17.7 0.00 0.00 0.00 17 1018.0
20260501172757 15 123 3.2 17.7 0.00 0.00 0.00 16 1018.1
20260501172456 15 31 3.2 16.1 0.00 0.00 0.00 15 1018.1
20260501172356 15 41 6.4 16.1 0.00 0.00 0.00 16 1018.2
20260501172257 15 54 3.2 14.5 0.00 0.00 0.00 16 1018.1
20260501172156 15 334 6.4 14.5 0.00 0.00 0.00 19 1018.3
20260501172056 15 20 4.8 14.5 0.00 0.00 0.00 18 1018.2
20260501171958 15 44 11.3 14.5 0.00 0.00 0.00 17 1018.2
20260501171857 15 57 3.2 25.7 0.00 0.00 0.00 18 1018.1
20260501171756 15 29 1.6 25.7 0.00 0.00 0.00 18 1018.1
20260501171658 15 16 1.6 25.7 0.00 0.00 0.00 15 1018.1
20260501171557 15 5 3.2 25.7 0.00 0.00 0.00 17 1018.1
20260501171457 15 24 6.4 25.7 0.00 0.00 0.00 18 1018.3
20260501171357 15 84 1.6 25.7 0.00 0.00 0.00 18 1018.3
20260501171258 15 22 9.7 25.7 0.00 0.00 0.00 16 1018.2
20260501171157 15 85 4.8 25.7 0.00 0.00 0.00 16 1018.3
20260501170959 15 40 11.3 22.5 0.00 0.00 0.00 16 1018.2
20260501170756 15 69 8.0 20.9 0.00 0.00 0.00 18 1018.3
20260501170656 15 21 3.2 20.9 0.00 0.00 0.00 18 1018.2
20260501170558 15 114 0.0 20.9 0.00 0.00 0.00 17 1018.1
20260501170457 15 360 4.8 20.9 0.00 0.00 0.00 19 1018.2
20260501170257 15 80 11.3 20.9 0.00 0.00 0.00 21 1018.2
20260501170157 15 115 1.6 20.9 0.00 0.00 0.00 20 1018.2
20260501165959 15 22 3.2 20.9 0.00 0.00 0.00 18 1018.2
20260501165857 15 44 8.0 20.9 0.00 0.00 0.00 18 1018.3
20260501165756 15 59 8.0 19.3 0.00 0.00 0.00 19 1018.2
20260501165557 15 44 11.3 22.5 0.00 0.00 0.00 19 1018.3
20260501165457 15 24 8.0 22.5 0.00 0.00 0.00 20 1018.3
20260501165356 15 51 11.3 17.7 0.00 0.00 0.00 20 1018.2
20260501165257 14 292 3.2 19.3 0.00 0.00 0.00 21 1018.2
20260501164957 14 5 4.8 24.1 0.00 0.00 0.00 19 1018.2
20260501164856 14 23 11.3 24.1 0.00 0.00 0.00 20 1018.3
20260501164756 14 105 6.4 24.1 0.00 0.00 0.00 19 1018.3
20260501164656 14 155 12.9 24.1 0.00 0.00 0.00 18 1018.3
20260501164457 14 115 12.9 24.1 0.00 0.00 0.00 19 1018.3
20260501164356 14 79 12.9 24.1 0.00 0.00 0.00 20 1018.3
20260501164257 14 105 3.2 24.1 0.00 0.00 0.00 19 1018.4
20260501164157 14 69 17.7 24.1 0.00 0.00 0.00 20 1018.3
20260501164057 14 65 12.9 22.5 0.00 0.00 0.00 18 1018.3
20260501163958 15 42 20.9 22.5 0.00 0.00 0.00 19 1018.4
20260501163857 15 38 4.8 22.5 0.00 0.00 0.00 19 1018.5
20260501163757 15 76 17.7 22.5 0.00 0.00 0.00 19 1018.5
20260501163657 15 51 8.0 22.5 0.00 0.00 0.00 20 1018.4
20260501163557 14 73 4.8 22.5 0.00 0.00 0.00 20 1018.4
20260501163457 14 96 11.3 25.7 0.00 0.00 0.00 20 1018.4
20260501163357 14 71 14.5 25.7 0.00 0.00 0.00 19 1018.4
20260501163256 14 17 3.2 25.7 0.00 0.00 0.00 20 1018.4
20260501163157 14 139 6.4 25.7 0.00 0.00 0.00 20 1018.4
20260501163058 14 76 11.3 25.7 0.00 0.00 0.00 20 1018.4
20260501162957 14 139 6.4 25.7 0.00 0.00 0.00 22 1018.4
20260501162857 14 29 3.2 25.7 0.00 0.00 0.00 21 1018.5
20260501162756 14 49 4.8 25.7 0.00 0.00 0.00 21 1018.4
20260501162657 14 55 8.0 25.7 0.00 0.00 0.00 20 1018.4
20260501162556 14 29 19.3 25.7 0.00 0.00 0.00 19 1018.3
20260501162457 14 222 1.6 19.3 0.00 0.00 0.00 20 1018.4
20260501162356 14 33 1.6 19.3 0.00 0.00 0.00 21 1018.4